[[{"header":{"parameterUnit":"m.s-1","parameterCategory":1,"la1":30.2991,"la2":30.254,"lo1":-89.0895,"lo2":-89.0444,"dy":0.0017,"dx":0.0017,"nx":28,"ny":28,"refTime":"2025-09-03T03:00:00:Z","depth":0,"parameterNumber":2,"parameterNumberName":"U-component_of_WINDS"},"data":[0,0,0,0,0,0,0,0,0,0,0,0,0,0,0,0,0,0,0,0,0,0,0,0,0,0,0,0,0,0,0,0,0,0,0,0,0,0,0,0,0,0,0,0,0,0,0,0,0,0,0,0,0,0,0,0,0,0,0.2412,0.2412,0,0.2383,0.2382,0.2382,0.2374,0.2374,0.2375,0.2375,0.2343,0.2342,0.2341,0,0,0,0,0,0,0,0,0,0,0,0,0,0.2459,0.2458,0.2412,0.2412,0.2411,0.2383,0.2382,0.2382,0.2374,0.2374,0.2375,0.2375,0.2344,0.2343,0.2341,0,0,0,0,0,0,0,0,0,0,0,0,0,0.2435,0.2458,0.2412,0.2404,0.2403,0.2383,0.2382,0.2382,0.2374,0.2374,0.2375,0.2375,0.2344,0.2343,0.2341,0.2326,0,0,0.2337,0.2336,0,0,0,0,0,0,0,0,0.2436,0.2433,0.2406,0.2405,0.2403,0.2382,0.2387,0.2363,0.2374,0.2385,0.2375,0.2375,0.2356,0.2354,0.2347,0.2325,0.2324,0.2336,0.2336,0.2335,0.2334,0,0,0,0,0,0,0,0.2438,0.2434,0.24,0.2405,0.2404,0.2401,0.2398,0.2383,0.2369,0.2384,0.2384,0.238,0.2356,0.2349,0.2347,0.2323,0.2336,0.2335,0.2334,0.2334,0.2284,0.2284,0,0,0,0,0,0,0.2441,0.2436,0.2401,0.24,0.2421,0.24,0.2396,0.2389,0.237,0.2367,0.238,0.238,0.2351,0.2348,0.2346,0.2325,0.2335,0.2333,0.2333,0.2285,0.2284,0.2284,0,0,0,0,0,0,0.2442,0.2438,0.2403,0.2417,0.2413,0.2399,0.239,0.2388,0.2382,0.2366,0.2364,0.2376,0.2351,0.2348,0.2331,0.2324,0.2333,0.2331,0.2285,0.2284,0.2284,0.2286,0,0,0,0,0,0,0.2444,0.2439,0.2434,0.2417,0.2412,0.2389,0.239,0.2387,0.2379,0.2379,0.2362,0.2359,0.2351,0.2333,0.2329,0.2322,0.233,0.2286,0.2285,0.2284,0.2286,0.2285,0.2284,0,0,0,0,0,0.2445,0.2436,0.2434,0.2429,0.2406,0.2389,0.2386,0.2377,0.2379,0.2373,0.2363,0.236,0.2326,0.2331,0.2327,0.2319,0.2286,0.2285,0.2284,0.2287,0.2285,0.2284,0,0,0,0,0,0,0.2452,0.2433,0.2431,0.2416,0.2404,0.2388,0.238,0.2377,0.2364,0.2364,0.2353,0.2349,0.2333,0.2324,0.2331,0.2303,0.2306,0.2304,0.2309,0.2308,0.2307,0.2309,0.2329,0,0,0,0,0,0.2451,0.244,0.2424,0.2413,0.2407,0.2394,0.2387,0.2381,0.2368,0.2363,0.2352,0.2339,0.2325,0.2316,0.2302,0.2285,0.228,0.2277,0.2276,0.2276,0.2274,0.2262,0.226,0.2281,0.2281,0.2281,0,0,0.2451,0.2439,0.2433,0.2414,0.2404,0.2391,0.239,0.2378,0.2367,0.2361,0.2344,0.2335,0.232,0.2302,0.2293,0.2294,0.2267,0.2275,0.2274,0.2273,0.2261,0.2259,0.2257,0.228,0.228,0.228,0,0,0.2443,0.2434,0.2422,0.2411,0.2396,0.2388,0.2385,0.2369,0.2362,0.2345,0.2339,0.2327,0.2303,0.2292,0.2283,0.2268,0.2264,0.2264,0.2259,0.2247,0.2246,0.2244,0.2237,0.2235,0.2262,0.2262,0.2262,0,0.2444,0.2425,0.2416,0.2403,0.2394,0.2387,0.2374,0.2364,0.2345,0.2338,0.234,0.2309,0.2298,0.2276,0.2272,0.2266,0.2261,0.2266,0.2247,0.2245,0.2244,0.2237,0.2234,0.2262,0.2262,0.2262,0.2262,0,0.2426,0.2413,0.2405,0.2386,0.2376,0.2363,0.2351,0.2342,0.2336,0.2327,0.2308,0.2295,0.2278,0.2272,0.2267,0.2249,0.225,0.2249,0.2252,0.2242,0.2235,0.2232,0.2262,0.2262,0.2262,0.2262,0,0,0.2423,0.2398,0.2395,0.2385,0.2367,0.2356,0.2342,0.2325,0.2316,0.2303,0.2289,0.2268,0.2267,0.2257,0.225,0.224,0.2226,0.224,0.224,0.2237,0.2203,0.2203,0.22,0.2224,0.2223,0.2223,0.2204,0,0.2411,0.2386,0.2377,0.2356,0.2342,0.2334,0.2321,0.2308,0.2298,0.2285,0.2274,0.2259,0.2259,0.2253,0.2242,0.223,0.2219,0.2232,0.221,0.2209,0.2213,0.2197,0.2197,0.218,0.2201,0.2201,0.22,0,0.2396,0.2381,0.2359,0.234,0.2334,0.2323,0.2305,0.2292,0.2276,0.227,0.2257,0.225,0.2233,0.2237,0.2212,0.2221,0.2211,0.2203,0.2202,0.2199,0.2204,0.2192,0.2175,0.2171,0.2197,0.2197,0.2197,0,0.2394,0.2369,0.2352,0.2344,0.2322,0.2313,0.2304,0.2288,0.2277,0.2261,0.2254,0.2236,0.2226,0.2212,0.22,0.2204,0.2175,0.2179,0.2168,0.2168,0.2162,0.2163,0.2142,0.2158,0.2158,0.2158,0.2158,0,0.2382,0.2368,0.235,0.2339,0.2323,0.2311,0.2295,0.2284,0.2269,0.2255,0.2247,0.2234,0.222,0.2204,0.2194,0.2174,0.217,0.2163,0.216,0.2163,0.2164,0.2156,0.2157,0.2157,0.2157,0.2158,0.2158,0,0.2377,0.2365,0.2345,0.2325,0.232,0.2308,0.229,0.2279,0.2268,0.225,0.2245,0.2228,0.2209,0.2196,0.2171,0.2165,0.2142,0.214,0.2148,0.2146,0.2136,0.2137,0.2109,0.2103,0.2124,0.2124,0.2124,0,0.2371,0.236,0.2338,0.2328,0.2318,0.2302,0.2291,0.2278,0.2267,0.2245,0.2236,0.2216,0.22,0.2169,0.2154,0.2134,0.2131,0.2122,0.2128,0.213,0.2129,0.2129,0.2127,0.2122,0.2121,0.2121,0.2121,0,0.2359,0.2353,0.2338,0.2319,0.2306,0.2291,0.2275,0.2267,0.2251,0.2238,0.2218,0.2206,0.218,0.2159,0.2138,0.2126,0.212,0.2119,0.2116,0.2118,0.2122,0.2118,0.2144,0.212,0.212,0.212,0.212,0.212,0.2352,0.2341,0.2324,0.2306,0.2293,0.2278,0.2265,0.2252,0.2236,0.2214,0.2207,0.2185,0.2166,0.2137,0.2125,0.2107,0.2108,0.2103,0.2101,0.21,0.2099,0.2125,0.2103,0.2103,0.2103,0.2103,0.2103,0,0.2339,0.2327,0.2311,0.2289,0.2274,0.227,0.2252,0.224,0.2221,0.2204,0.2188,0.2163,0.2143,0.2125,0.2104,0.2092,0.2089,0.2087,0.2087,0.2084,0.2101,0.2105,0.209,0.209,0.209,0.209,0.209,0.209,0.2331,0.2311,0.2302,0.2275,0.2262,0.2242,0.2231,0.2217,0.2203,0.2176,0.2159,0.2148,0.213,0.2106,0.2086,0.2082,0.2073,0.2072,0.2066,0.2082,0.2083,0.2085,0.2089,0.207,0.207,0.2051,0.205,0.205]},{"header":{"parameterUnit":"m.s-1","parameterCategory":1,"la1":30.2991,"la2":30.254,"lo1":-89.0895,"lo2":-89.0444,"dy":0.0017,"dx":0.0017,"nx":28,"ny":28,"refTime":"2025-09-03T03:00:00:Z","depth":0,"parameterNumber":3,"parameterNumberName":"V-component_of_WINDS"},"data":[0,0,0,0,0,0,0,0,0,0,0,0,0,0,0,0,0,0,0,0,0,0,0,0,0,0,0,0,0,0,0,0,0,0,0,0,0,0,0,0,0,0,0,0,0,0,0,0,0,0,0,0,0,0,0,0,0,0,3.0938,3.0939,0,3.0981,3.0982,3.0982,3.0967,3.0966,3.0965,3.0964,3.1006,3.1008,3.101,0,0,0,0,0,0,0,0,0,0,0,0,0,3.0838,3.084,3.0938,3.0939,3.0939,3.0981,3.0982,3.0982,3.0967,3.0966,3.0965,3.0964,3.1005,3.1007,3.101,0,0,0,0,0,0,0,0,0,0,0,0,0,3.0882,3.0841,3.0938,3.0937,3.0937,3.0981,3.0982,3.0982,3.0968,3.0966,3.0965,3.0963,3.1004,3.1007,3.101,3.1057,0,0,3.1019,3.102,0,0,0,0,0,0,0,0,3.0879,3.0885,3.0936,3.0937,3.0937,3.0967,3.0962,3.1007,3.0968,3.0956,3.0964,3.0963,3.0994,3.0998,3.1009,3.1059,3.106,3.1019,3.1021,3.1022,3.1023,0,0,0,0,0,0,0,3.0876,3.0883,3.0955,3.0937,3.0938,3.0933,3.0937,3.097,3.0982,3.0957,3.0956,3.0961,3.0994,3.1006,3.101,3.1061,3.1019,3.1022,3.1024,3.1025,3.1148,3.1149,0,0,0,0,0,0,3.0873,3.0881,3.0954,3.0956,3.0904,3.0936,3.0941,3.0959,3.0982,3.0984,3.0963,3.0961,3.1002,3.1006,3.1011,3.1065,3.1022,3.1025,3.1027,3.1146,3.1148,3.115,0,0,0,0,0,0,3.0871,3.088,3.0952,3.0918,3.0927,3.0939,3.096,3.0961,3.0973,3.0986,3.0988,3.0973,3.1001,3.1007,3.1045,3.1066,3.1027,3.1029,3.1145,3.1147,3.1149,3.1174,0,0,0,0,0,0,3.0869,3.0879,3.0899,3.0919,3.0929,3.0987,3.0961,3.0963,3.0978,3.0976,3.0996,3.0998,3.1,3.1041,3.1048,3.1069,3.1032,3.1143,3.1146,3.1148,3.1171,3.1177,3.1182,0,0,0,0,0,3.0865,3.0904,3.09,3.0908,3.0953,3.0988,3.0993,3.0995,3.098,3.0998,3.1006,3.0998,3.1063,3.1045,3.1053,3.1075,3.1141,3.1145,3.1148,3.1169,3.1176,3.1181,0,0,0,0,0,0,3.0885,3.0907,3.0902,3.0949,3.0967,3.0985,3.1008,3.1003,3.1025,3.1022,3.1022,3.1027,3.1065,3.1075,3.1054,3.112,3.11,3.1105,3.1113,3.1119,3.1124,3.112,3.1034,0,0,0,0,0,3.0895,3.0923,3.094,3.0979,3.0988,3.0997,3.1012,3.1012,3.103,3.1037,3.1048,3.1065,3.1089,3.1105,3.1128,3.1173,3.1176,3.1192,3.1197,3.1202,3.1205,3.1227,3.1234,3.1161,3.1161,3.1161,0,0,3.0916,3.0931,3.0948,3.0983,3.0997,3.1024,3.1003,3.1033,3.1052,3.1041,3.1078,3.1086,3.1105,3.1146,3.1165,3.1155,3.1226,3.1206,3.1209,3.1211,3.1231,3.1238,3.1244,3.1163,3.1163,3.1162,0,0,3.0966,3.0982,3.1015,3.1029,3.105,3.1056,3.1063,3.1083,3.1088,3.1125,3.1116,3.1139,3.1181,3.1194,3.1206,3.1259,3.1251,3.1267,3.1293,3.1314,3.1319,3.1324,3.1341,3.1347,3.1271,3.1271,3.1271,0,3.0989,3.103,3.1033,3.1063,3.1077,3.1069,3.1101,3.1115,3.1142,3.1151,3.114,3.1191,3.1204,3.1246,3.1259,3.127,3.1277,3.1264,3.1319,3.1324,3.1328,3.1344,3.1351,3.1273,3.1272,3.1272,3.1272,0,3.1056,3.1084,3.1108,3.1135,3.1152,3.1183,3.1189,3.1206,3.1204,3.1209,3.1245,3.126,3.1284,3.1295,3.1293,3.1336,3.1329,3.1319,3.1297,3.1337,3.1351,3.1358,3.1275,3.1274,3.1274,3.1273,0,0,3.112,3.1147,3.1155,3.1166,3.1188,3.1209,3.1239,3.1263,3.1277,3.1296,3.1319,3.1354,3.1343,3.1357,3.1357,3.1376,3.1414,3.1362,3.1363,3.1369,3.1459,3.1465,3.1472,3.1409,3.141,3.1411,3.1457,0,3.1171,3.1224,3.1226,3.1273,3.1298,3.129,3.1315,3.133,3.1336,3.1357,3.1363,3.1387,3.1373,3.138,3.1399,3.1405,3.1431,3.1402,3.1428,3.1429,3.1422,3.1481,3.1488,3.153,3.1463,3.1464,3.1464,0,3.1237,3.1258,3.1307,3.1323,3.1334,3.1357,3.1378,3.1399,3.1415,3.1417,3.1432,3.1429,3.1457,3.1436,3.1473,3.1453,3.1464,3.1469,3.147,3.1471,3.1448,3.1481,3.1544,3.1549,3.1474,3.1473,3.1472,0,3.1276,3.1316,3.135,3.136,3.1381,3.1396,3.1405,3.142,3.1434,3.1452,3.1461,3.1482,3.1493,3.1509,3.1511,3.1496,3.1547,3.1528,3.1549,3.1548,3.1558,3.1557,3.1622,3.1569,3.1569,3.1569,3.1569,0,3.1331,3.1361,3.1368,3.1389,3.1421,3.1423,3.1455,3.1462,3.1475,3.1496,3.1491,3.151,3.1512,3.1531,3.1533,3.1562,3.1568,3.1569,3.1569,3.1569,3.1568,3.1574,3.1571,3.1571,3.157,3.157,3.157,0,3.1379,3.1386,3.1422,3.1438,3.1442,3.1465,3.1478,3.1497,3.1502,3.1528,3.1535,3.1542,3.1564,3.1568,3.1595,3.1595,3.163,3.1627,3.1624,3.1623,3.1643,3.164,3.1712,3.172,3.1664,3.1665,3.1665,0,3.1413,3.1436,3.1454,3.1468,3.1478,3.15,3.1514,3.1516,3.153,3.1549,3.1565,3.1587,3.1605,3.164,3.1647,3.1667,3.1664,3.1687,3.1666,3.1665,3.1661,3.1659,3.166,3.1691,3.1691,3.1692,3.1692,0,3.1472,3.1473,3.1494,3.1514,3.1531,3.1548,3.1563,3.1574,3.1578,3.1594,3.1617,3.1631,3.1657,3.1678,3.1697,3.1705,3.1698,3.1699,3.1705,3.1703,3.17,3.17,3.1633,3.1697,3.1697,3.1696,3.1696,3.1696,3.1512,3.1531,3.1546,3.1568,3.158,3.1594,3.1612,3.1619,3.1639,3.166,3.166,3.1685,3.1698,3.1723,3.1732,3.175,3.1742,3.1751,3.1753,3.1754,3.1755,3.1699,3.1754,3.1754,3.1754,3.1754,3.1754,0,3.1568,3.1577,3.1598,3.1619,3.1636,3.163,3.1646,3.166,3.1682,3.1695,3.1712,3.1737,3.1757,3.1766,3.1785,3.1797,3.1795,3.1802,3.18,3.1802,3.1762,3.1754,3.1804,3.1804,3.1804,3.1804,3.1804,3.1804,3.1599,3.163,3.1633,3.1668,3.1677,3.1701,3.171,3.1723,3.1733,3.1761,3.1778,3.1783,3.1794,3.1814,3.1831,3.1833,3.1839,3.1847,3.1847,3.181,3.1805,3.18,3.1792,3.1849,3.1849,3.1885,3.1885,3.1886]}]]